Weather History for Estherville, IA

Change the Weather History Date:

Tuesday, August 14, 2012

  Actual Average Record
Temperature  
Mean Temperature 67 °F 70 °F  
Max Temperature 81 °F 80 °F 94 °F (1965)
Min Temperature 53 °F 59 °F 43 °F (1992)
Degree Days  
Heating Degree Days 0 1  
Month to date heating degree days 9 3  
Since 1 June heating degree days 27 53  
Since 1 July heating degree days 9 12  
Cooling Degree Days 2 5  
Month to date cooling degree days 76 79  
Year to date cooling degree days 734 471  
Since 1 June cooling degree days 645 435  
Growing Degree Days 18 (Base 50)    
Moisture  
Dew Point 58 °F    
Average Humidity 68    
Maximum Humidity 93    
Minimum Humidity 42    
Precipitation  
Precipitation 0.00 in 0.13 in 1.86 in (1989)
Month to date precipitation T 1.99  
Year to date precipitation 15.47  
Sea Level Pressure  
Sea Level Pressure 29.93 in    
Wind  
Wind Speed 4 mph (SSW)    
Max Wind Speed 14 mph    
Max Gust Speed 17 mph    
Visibility 9 miles    
Events      
T = Trace of Precipitation, MM = Missing Value Source: NWS Daily Summary

Daily Weather History Graph

Daily Weather History Graph

Search for Another Location

Airport:

Trip Planner

Search our weather history database for the weather conditions in past years. The results will help you decide how hot, cold, wet, or windy it might be!

Date:

Astronomy

Aug. 14, 2012 Rise Set
Actual Time 6:23 AM CDT 8:22 PM CDT
Civil Twilight 5:52 AM CDT 8:53 PM CDT
Nautical Twilight 5:14 AM CDT 9:31 PM CDT
Astronomical Twilight 4:33 AM CDT 10:12 PM CDT
Moon 3:19 AM CDT (8/14) 6:19 PM CDT (8/14)
Length of Visible Light 15h 01m
Length of Day
13h 59m
Waning Crescent, 9% of the Moon is Illuminated
Aug 14
Waning Crescent
Aug 17
New
Aug 24
First Quarter
Aug 31
Full
Sep 8
Last Quarter

Hourly Weather History & Observations

Time (CDT) Temp. Heat Index Dew Point Humidity Pressure Visibility Wind Dir Wind Speed Gust Speed Precip Events Conditions
12:52 AM 60.1 °F - 57.0 °F 90% 29.99 in 10.0 mi Calm Calm - N/A   Clear
1:52 AM 57.9 °F - 55.0 °F 90% 29.99 in 9.0 mi WNW 5.8 mph - N/A   Clear
2:52 AM 55.9 °F - 54.0 °F 93% 30.00 in 8.0 mi West 5.8 mph - N/A   Clear
3:52 AM 55.9 °F - 54.0 °F 93% 30.00 in 8.0 mi WNW 5.8 mph - N/A   Clear
5:52 AM 54.0 °F - 52.0 °F 93% 29.98 in 8.0 mi Calm Calm - N/A   Clear
6:52 AM 54.0 °F - 52.0 °F 93% 29.99 in 6.0 mi WNW 3.5 mph - N/A   Partly Cloudy
7:52 AM 59.0 °F - 57.0 °F 93% 29.99 in 6.0 mi Calm Calm - N/A   Mostly Cloudy
8:52 AM 64.9 °F - 59.0 °F 81% 29.98 in 10.0 mi Calm Calm - N/A   Clear
9:52 AM 68.0 °F - 60.1 °F 76% 29.98 in 10.0 mi Calm Calm - N/A   Clear
10:52 AM 72.0 °F - 59.0 °F 64% 29.97 in 10.0 mi SW 4.6 mph - N/A   Clear
11:52 AM 75.9 °F - 60.1 °F 58% 29.97 in 10.0 mi West 6.9 mph - N/A   Clear
12:52 PM 78.1 °F - 57.9 °F 50% 29.96 in 10.0 mi Variable 4.6 mph - N/A   Clear
1:52 PM 80.1 °F 80.4 °F 57.0 °F 45% 29.94 in 10.0 mi WSW 5.8 mph - N/A   Clear
2:52 PM 81.0 °F 80.7 °F 55.0 °F 41% 29.92 in 10.0 mi WSW 9.2 mph - N/A   Partly Cloudy
3:52 PM 81.0 °F 80.8 °F 55.9 °F 42% 29.90 in 10.0 mi SW 8.1 mph - N/A   Clear
4:52 PM 80.1 °F 80.2 °F 55.9 °F 43% 29.88 in 10.0 mi Calm Calm - N/A   Clear
5:52 PM 78.1 °F - 59.0 °F 52% 29.87 in 10.0 mi SE 5.8 mph - N/A   Partly Cloudy
6:52 PM 75.9 °F - 61.0 °F 60% 29.86 in 10.0 mi ESE 4.6 mph - N/A   Mostly Cloudy
7:52 PM 73.9 °F - 62.1 °F 66% 29.86 in 10.0 mi East 4.6 mph - N/A   Mostly Cloudy
8:52 PM 66.9 °F - 63.0 °F 87% 29.86 in 10.0 mi ESE 4.6 mph - N/A   Clear
9:52 PM 64.0 °F - 60.1 °F 87% 29.86 in 10.0 mi ESE 3.5 mph - N/A   Clear
10:52 PM 64.9 °F - 61.0 °F 87% 29.85 in 10.0 mi East 3.5 mph - N/A   Mostly Cloudy
11:52 PM 63.0 °F - 60.1 °F 90% 29.85 in 10.0 mi SSE 5.8 mph - N/A   Partly Cloudy